Location: ?????????
(53.2086°N, 54.0693°E)
Time: 10:38:03
(UTC+00:00)

Cosmos 1346 Rocket - Pass Details

Date: 08 December 2019
Orbit: 524 x 555 km, 81.2° (Epoch: 26 January)

Event Time Altitude Azimuth Distance (km) Brightness Sun altitude
Rises 12:42:03 0° 349° (NNW) 2,697 6.1 -5.2°
Reaches altitude 10° 12:44:15 10° 353° (N) 1,806 5.2 -5.5°
Maximum altitude 12:48:10 58° 73° (ENE) 634 2.8 -6.0°
Drops below altitude 10° 12:52:07 10° 154° (SSE) 1,810 5.5 -6.5°
Sets 12:54:18 0° 158° (SSE) 2,703 6.5 -6.8°
